Retour au catalogue

IRIDIUM 33 DEB

ActifPO
NORAD 34540·DEBRIS·🇺🇸 United States

Lancé Sep 14, 1997 depuis Baikonur Cosmodrome

Loading…

Prochains Passages (prochaines 24 heures)

TLE

FraisSource: Space-Track

Époque: Sep 14, 2026, 06:09 UTC

1 34540U 97051JH  26257.25625950  .00006120  00000-0  79618-3 0  9997
2 34540  86.3138 181.0758 0012106 301.0610 210.7220 14.80463388930919

Suivez IRIDIUM 33 DEB en temps réel avec AllMySat

Download on the App Store